Regional Weather Roundup
Issued by NWS

Home | Current Version | Previous Version | Graphics & Text | Print | Product List | Glossary On
Versions: 1 2 3 4 5 6 7 8 9 10 11 12 13 14 15 16 17 18 19 20 21 22 23 24 25 26 27 28 29 30 31 32 33 34 35 36 37 38 39 40 41 42 43 44 45 46 47 48 49 50
150
ASUS44 KJAN 301410
RWRMS

MISSISSIPPI HOURLY WEATHER ROUNDUP
NATIONAL WEATHER SERVICE JACKSON MS
900 AM CDT WED JUL 30 2014

NOTE: "FAIR: INDICATES FEW OR NO CLOUDS BELOW 12,000 FEET WITH NO
SIGNIFICANT WEATHER AND/OR OBSTRUCTIONS TO VISIBILITY.

MSZ001>002-007>008-010>013-018>021-025>028-034>036-301500-
NORTHWEST MISSISSIPPI

CITY           SKY/WX    TMP DP  RH WIND       PRES   REMARKS
CLARKSDALE     FAIR      68  64  88 CALM      30.14R
CLEVELAND      FAIR      71  64  79 S3        30.13R
GREENWOOD      SUNNY     71  58  63 E3        30.13S
GREENVILLE     SUNNY     72  62  71 CALM      30.12S
GRENADA        FAIR      68  61  77 CALM      30.13F
OXFORD         FAIR      72  57  60 CALM      30.15S
TUNICA         MOSUNNY   68  59  73 CALM      30.14R
$$

MSZ003>006-009-014>017-022>024-029>033-037>039-301500-
NORTHEAST MISSISSIPPI

CITY           SKY/WX    TMP DP  RH WIND       PRES   REMARKS
BELMONT        FAIR      67  60  79 NE3       30.13S
COLUMBUS AFB   MOSUNNY   67  60  75 N2        30.12S
CORINTH        FAIR      66  59  77 CALM      30.13S
GOLDN TRIANGLE SUNNY     70  59  68 N5        30.13R
STARKVILLE     FAIR      66  59  77 CALM      30.13R
TUPELO         SUNNY     68  58  70 NE3       30.12S
$$

MSZ040-058-301500-
CENTRAL MISSISSIPPI

CITY           SKY/WX    TMP DP  RH WIND       PRES   REMARKS
JACKSON INTL   SUNNY     73  58  59 NE6       30.13R
JACKSON HAWKNS SUNNY     73  57  57 E5        30.13R
MERIDIAN KEY   SUNNY     72  57  59 N5        30.12S
MERIDIAN NAS   MOSUNNY   71  59  65 VRB3      30.12S
RAYMOND        FAIR      73  68  83 CALM      30.13S
VICKSBURG      SUNNY     73  60  63 SE3       30.13R
$$

MSZ059>079-301500-
SOUTH MISSISSIPPI

CITY           SKY/WX    TMP DP  RH WIND       PRES   REMARKS
BROOKHAVEN     FAIR      72  61  68 NE3       30.14S
COLUMBIA       FAIR      72  61  68 VRB3      30.10S
HATTIESBURG    SUNNY     73  60  63 N6        30.11R
MCCOMB         SUNNY     73  58  59 NE6       30.12R
NATCHEZ        SUNNY     73  61  64 E5        30.13S
PINE BELT      SUNNY     72  57  60 NE6       30.12S
$$

MSZ080>082-301500-
COASTAL MISSISSIPPI

CITY           SKY/WX    TMP DP  RH WIND       PRES   REMARKS
BAY ST LOUIS   SUNNY    N/A N/A N/A CALM      30.08S
BILOXI         SUNNY     76  59  56 NE8       30.06S
PASCAGOULA     SUNNY     75  59  57 NE6       30.06S
GULFPORT       SUNNY     79  57  46 NE7       30.06S
$$



USA.gov is the U.S. government's official web portal to all federal, state and local government web resources and services.